Del Norte, CO

4:27 AM MDT on August 30, 2016 (GMT -0600)
Wolf Creek Pass

Weather History for KCPW - September, 2012

Change the Weather History Date:

Friday, September 14, 2012

  Actual Average (KALS) Record (KALS)
Temperature  
Mean Temperature 41 °F 56 °F  
Max Temperature 50 °F 74 °F 85 °F (1956)
Min Temperature 32 °F 38 °F 24 °F (1945)
Degree Days  
Heating Degree Days 24 9  
Month to date heating degree days 100  
Since 1 July heating degree days 229  
Cooling Degree Days 0 0  
Month to date cooling degree days 0  
Year to date cooling degree days 51  
Moisture  
Dew Point 21 °F    
Average Humidity 52    
Maximum Humidity 81    
Minimum Humidity 22    
Precipitation  
Precipitation 0.00 in 0.03 in 0.68 in (2013)
Month to date precipitation 0.49  
Year to date precipitation 5.44  
Snow  
Snow 0.00 in 0.00 in 0.00 in (2002)
Month to date snowfall 0.0  
Since 1 July snowfall 0.0  
Since 1 September snowfall 0.0  
Snow Depth -    
Sea Level Pressure  
Sea Level Pressure 30.72 in    
Wind  
Wind Speed 19 mph (NE)    
Max Wind Speed 26 mph    
Max Gust Speed 33 mph    
Visibility 10 miles    
Events      
T = Trace of Precipitation, MM = Missing Value Source: NWS Daily Summary

Daily Weather History Graph

Daily Weather History Graph

Search for Another Location

Airport or City:

Trip Planner

Search our weather history database for the weather conditions in past years. The results will help you decide how hot, cold, wet, or windy it might be!

Date:

Astronomy

Sep. 14, 2012 Rise Set
Actual Time 6:48 AM MDT 7:15 PM MDT
Civil Twilight 6:22 AM MDT 7:41 PM MDT
Nautical Twilight 5:51 AM MDT 8:12 PM MDT
Astronomical Twilight 5:20 AM MDT 8:43 PM MDT
Moon 5:17 AM MDT (9/14) 6:13 PM MDT (9/14)
Length of Visible Light 13h 19m
Length of Day
12h 26m
Waning Crescent, 2% of the Moon is Illuminated
Sep 14
Waning Crescent
Sep 15
New
Sep 22
First Quarter
Sep 29
Full
Oct 8
Last Quarter

Hourly Weather History & Observations

Time (MDT) Temp. Windchill Dew Point Humidity Pressure Visibility Wind Dir Wind Speed Gust Speed Precip Events Conditions
12:15 AM 33.8 °F 22.8 °F 23.0 °F 65% 30.75 in 10.0 mi NNE 18.4 mph 23.0 mph N/A   Clear
12:35 AM 33.8 °F 22.5 °F 24.8 °F 70% 30.75 in 10.0 mi NE 19.6 mph - N/A   Clear
12:55 AM 33.8 °F 22.2 °F 26.6 °F 75% 30.74 in 10.0 mi NE 20.7 mph 27.6 mph N/A   Clear
1:15 AM 33.8 °F 21.6 °F 26.6 °F 75% 30.74 in 10.0 mi NE 23.0 mph - N/A   Clear
1:35 AM 33.8 °F 21.6 °F 26.6 °F 75% 30.74 in 10.0 mi NE 23.0 mph - N/A   Clear
1:55 AM 33.8 °F 21.0 °F 28.4 °F 81% 30.74 in 10.0 mi NE 25.3 mph - N/A   Clear
2:15 AM 33.8 °F 21.0 °F 26.6 °F 75% 30.73 in 10.0 mi NE 25.3 mph - N/A   Clear
2:35 AM 32.0 °F 18.6 °F 26.6 °F 80% 30.73 in 10.0 mi NE 25.3 mph - N/A   Clear
2:55 AM 32.0 °F 18.6 °F 26.6 °F 80% 30.72 in 10.0 mi NE 25.3 mph - N/A   Clear
3:15 AM 32.0 °F 18.6 °F 26.6 °F 80% 30.72 in 10.0 mi NE 25.3 mph - N/A   Clear
3:35 AM 32.0 °F 19.2 °F 26.6 °F 80% 30.72 in 10.0 mi NE 23.0 mph - N/A   Clear
3:55 AM 32.0 °F 18.9 °F 26.6 °F 80% 30.72 in 10.0 mi NE 24.2 mph - N/A   Clear
4:15 AM 32.0 °F 18.9 °F 24.8 °F 75% 30.71 in 10.0 mi NE 24.2 mph - N/A   Clear
4:35 AM 32.0 °F 18.4 °F 24.8 °F 75% 30.71 in 10.0 mi NE 26.5 mph - N/A   Clear
4:55 AM 32.0 °F 18.6 °F 23.0 °F 69% 30.71 in 10.0 mi NE 25.3 mph - N/A   Clear
5:15 AM 32.0 °F 19.2 °F 23.0 °F 69% 30.71 in 10.0 mi NE 23.0 mph - N/A   Clear
5:35 AM 32.0 °F 19.5 °F 23.0 °F 69% 30.71 in 10.0 mi NE 21.9 mph - N/A   Clear
5:55 AM 32.0 °F 19.2 °F 23.0 °F 69% 30.72 in 10.0 mi NE 23.0 mph - N/A   Clear
6:15 AM 32.0 °F 18.9 °F 21.2 °F 64% 30.72 in 10.0 mi NE 24.2 mph - N/A   Clear
6:35 AM 32.0 °F 18.9 °F 21.2 °F 64% 30.72 in 10.0 mi NE 24.2 mph - N/A   Clear
6:55 AM 32.0 °F 19.2 °F 21.2 °F 64% 30.72 in 10.0 mi NE 23.0 mph - N/A   Clear
7:15 AM 32.0 °F 18.9 °F 21.2 °F 64% 30.72 in 10.0 mi NE 24.2 mph - N/A   Clear
7:35 AM 33.8 °F 21.3 °F 21.2 °F 60% 30.72 in 10.0 mi NE 24.2 mph - N/A   Clear
7:55 AM 35.6 °F 24.0 °F 21.2 °F 56% 30.72 in 10.0 mi NE 23.0 mph - N/A   Clear
8:15 AM 35.6 °F 24.2 °F 21.2 °F 56% 30.72 in 10.0 mi NE 21.9 mph - N/A   Clear
8:35 AM 35.6 °F 23.4 °F 19.4 °F 52% 30.72 in 10.0 mi NNE 25.3 mph 31.1 mph N/A   Clear
8:55 AM 37.4 °F 26.4 °F 21.2 °F 52% 30.73 in 10.0 mi NNE 23.0 mph - N/A   Clear
9:15 AM 37.4 °F 26.4 °F 21.2 °F 52% 30.74 in 10.0 mi NNE 23.0 mph 29.9 mph N/A   Clear
9:35 AM 37.4 °F 26.4 °F 21.2 °F 52% 30.74 in 10.0 mi NE 23.0 mph 26.5 mph N/A   Clear
9:55 AM 41.0 °F 31.6 °F 21.2 °F 45% 30.74 in 10.0 mi NE 20.7 mph 25.3 mph N/A   Clear
10:15 AM 41.0 °F 31.1 °F 21.2 °F 45% 30.74 in 10.0 mi NNE 23.0 mph 29.9 mph N/A   Clear
10:35 AM 42.8 °F 33.8 °F 21.2 °F 42% 30.74 in 10.0 mi NE 21.9 mph 31.1 mph N/A   Clear
10:55 AM 42.8 °F 34.5 °F 19.4 °F 39% 30.74 in 10.0 mi NE 18.4 mph 29.9 mph N/A   Clear
11:15 AM 42.8 °F 34.5 °F 21.2 °F 42% 30.75 in 10.0 mi NNE 18.4 mph 33.4 mph N/A   Clear
11:35 AM 44.6 °F - 21.2 °F 39% 30.74 in 10.0 mi North - - N/A   Clear
11:55 AM 44.6 °F 36.4 °F 21.2 °F 39% 30.74 in 10.0 mi NNE 20.7 mph 29.9 mph N/A   Clear
12:15 PM 44.6 °F 37.8 °F 17.6 °F 34% 30.74 in 10.0 mi ENE 15.0 mph 24.2 mph N/A   Clear
12:35 PM 44.6 °F 37.4 °F 19.4 °F 37% 30.74 in 10.0 mi East 16.1 mph 25.3 mph N/A   Clear
12:55 PM 44.6 °F 37.2 °F 17.6 °F 34% 30.74 in 10.0 mi ENE 17.3 mph 24.2 mph N/A   Clear
1:15 PM 46.4 °F 39.5 °F 17.6 °F 32% 30.74 in 10.0 mi NNE 17.3 mph 28.8 mph N/A   Clear
1:35 PM 46.4 °F 40.1 °F 17.6 °F 32% 30.73 in 10.0 mi ENE 15.0 mph 25.3 mph N/A   Clear
1:55 PM 48.2 °F - 17.6 °F 30% 30.73 in 10.0 mi NNE 15.0 mph 24.2 mph N/A   Clear
2:15 PM 46.4 °F 39.5 °F 14.0 °F 27% 30.72 in 10.0 mi NNE 17.3 mph 24.2 mph N/A   Clear
2:35 PM 50.0 °F - 15.8 °F 26% 30.72 in 10.0 mi NE 11.5 mph 19.6 mph N/A   Clear
2:55 PM 48.2 °F - 14.0 °F 25% 30.72 in 10.0 mi NE 12.7 mph 20.7 mph N/A   Clear
3:15 PM 46.4 °F 40.4 °F 12.2 °F 25% 30.72 in 10.0 mi NNE 13.8 mph 20.7 mph N/A   Clear
3:35 PM 48.2 °F - 12.2 °F 24% 30.71 in 10.0 mi NNE 15.0 mph 21.9 mph N/A   Clear
3:55 PM 48.2 °F - 10.4 °F 22% 30.71 in 10.0 mi NNE 18.4 mph - N/A   Clear
4:15 PM 46.4 °F 40.4 °F 8.6 °F 22% 30.70 in 10.0 mi NNE 13.8 mph 21.9 mph N/A   Clear
4:35 PM 48.2 °F - 10.4 °F 22% 30.70 in 10.0 mi NNE 16.1 mph 23.0 mph N/A   Clear
4:55 PM 48.2 °F - 10.4 °F 22% 30.70 in 10.0 mi NNE 16.1 mph 20.7 mph N/A   Clear
5:15 PM 46.4 °F - 8.6 °F 22% 30.70 in 10.0 mi North - - N/A   Clear
5:35 PM 46.4 °F - 10.4 °F 23% 30.70 in 10.0 mi North - - N/A   Clear
5:55 PM 44.6 °F 39.7 °F 12.2 °F 27% 30.70 in 10.0 mi NE 9.2 mph - N/A   Clear
6:15 PM 42.8 °F 40.1 °F 12.2 °F 29% 30.70 in 10.0 mi NE 4.6 mph - N/A   Clear
6:35 PM 42.8 °F 37.5 °F 15.8 °F 34% 30.70 in 10.0 mi North 9.2 mph 20.7 mph N/A   Clear
6:55 PM 42.8 °F 38.0 °F 15.8 °F 34% 30.70 in 10.0 mi NNE 8.1 mph 18.4 mph N/A   Clear
7:15 PM 41.0 °F 34.7 °F 17.6 °F 39% 30.70 in 10.0 mi NE 10.4 mph 16.1 mph N/A   Clear
7:35 PM 41.0 °F 35.8 °F 17.6 °F 39% 30.70 in 10.0 mi NE 8.1 mph - N/A   Clear
7:55 PM 41.0 °F 35.2 °F 17.6 °F 39% 30.70 in 10.0 mi NNE 9.2 mph - N/A   Clear
8:15 PM 41.0 °F 35.8 °F 15.8 °F 36% 30.71 in 10.0 mi NE 8.1 mph - N/A   Clear
8:35 PM 37.4 °F - 15.8 °F 41% 30.71 in 10.0 mi Calm Calm - N/A   Clear
8:55 PM 39.2 °F 35.9 °F 21.2 °F 49% 30.71 in 10.0 mi SSE 4.6 mph - N/A   Clear
9:15 PM 39.2 °F - 32.0 °F 75% 30.72 in 10.0 mi Calm Calm - N/A   Clear
9:35 PM 37.4 °F - 30.2 °F 75% 30.72 in 10.0 mi Calm Calm - N/A   Clear
9:55 PM 39.2 °F - 23.0 °F 52% 30.72 in 10.0 mi Calm Calm - N/A   Clear
10:35 PM 39.2 °F 34.2 °F 26.6 °F 61% 30.72 in 10.0 mi NNE 6.9 mph - N/A   Clear
10:55 PM 37.4 °F 34.9 °F 28.4 °F 70% 30.72 in 10.0 mi ENE 3.5 mph - N/A   Clear
11:15 PM 37.4 °F 34.9 °F 32.0 °F 81% 30.72 in 10.0 mi ESE 3.5 mph - N/A   Clear
11:35 PM 37.4 °F 34.9 °F 32.0 °F 81% 30.72 in 10.0 mi ENE 3.5 mph - N/A   Clear
11:55 PM 37.4 °F 33.8 °F 32.0 °F 81% 30.72 in 10.0 mi NNW 4.6 mph - N/A   Clear